Home > Weather > Holguín > Past weeks

Flag for Cuba Past Weather in Holguín, Cuba — Yesterday and Last 2 Weeks

Now
86 °F

Broken clouds.


Feels Like: 93 °F
Forecast: 76 / 88 °F
Wind: 16 mph from East

Location: Holguin Civ / Mil

Current Time: Jul 27, 2016 at 3:22:31 PM

Latest Report: Jul 27, 2016 at 2:50 PM


Visibility: 6 mi

Pressure: 29.95 "Hg

Humidity: 66%

Dew Point: 73 °F

Location of HolguínLocation

Past Weather in Holguín — Graph

°F

Holguín Temperature Yesterday

Maximum temperature yesterday: 91 °F (at 12:50 PM)
Minimum temperature yesterday: 73 °F (at 5:50 AM)
Average temperature yesterday: 81 °F

High & Low Weather Summary for the Past Weeks

 TemperatureHumidityPressure
High95 °F (Jul 20, 2:50 PM)94% (Jul 16, 6:50 AM)30.09 "Hg (Jul 16, 6:50 AM)
Low72 °F (Jul 19, 2:51 AM)34% (Jul 24, 12:50 PM)29.95 "Hg (Jul 15, 4:50 PM)
Average83 °F69%30.01 "Hg
* Reported Jul 12 1:51 PM — Jul 27 1:50 PM, Holguín, Weather by CustomWeather, © 2016

Note: Actual official high and low records may vary slightly from our data, if they occured in-between our weather recording intervals... More about our weather records

Advertising

Holguín Weather History for the Previous 24 Hours

Scroll right to see more
 ConditionsComfort  
Time TempWeatherWind HumidityBarometerVisibility
1:50 PM
Wed, Jul 27
90 °FBroken clouds.16 mph52%29.98 "Hg6 mi
12:51 PM88 °FPartly sunny.15 mph59%30.01 "Hg6 mi
11:51 AM86 °FPartly sunny.13 mph62%30.01 "Hg6 mi
10:50 AM88 °FPartly sunny.14 mph59%30.01 "HgN/A
9:50 AM86 °FPartly sunny.12 mph62%30.01 "Hg6 mi
8:50 AM82 °FScattered clouds.10 mph74%30.01 "Hg6 mi
7:56 AM81 °FPassing clouds.6 mph79%30.01 "Hg6 mi
6:52 AM77 °FPassing clouds.5 mph74%30.01 "Hg6 mi
5:50 AM73 °FFog.2 mph89%29.98 "Hg4 mi
4:51 AM73 °FFog.2 mph94%29.95 "Hg5 mi
3:50 AM75 °FClear.3 mph89%29.95 "Hg10 mi
2:50 AM75 °FClear.5 mph89%29.98 "Hg10 mi
1:50 AM77 °FClear.6 mph83%29.98 "Hg10 mi
12:50 AM77 °FClear.3 mph83%29.98 "Hg10 mi
11:50 PM
Tue, Jul 26
79 °FClear.8 mph84%30.01 "Hg10 mi
10:50 PM79 °FClear.8 mph79%30.01 "Hg10 mi
9:50 PM81 °FPassing clouds.7 mph74%30.01 "HgN/A
8:50 PM81 °FPassing clouds.7 mph74%29.98 "HgN/A
7:50 PM81 °FPassing clouds.2 mph74%29.98 "HgN/A
6:50 PM84 °FPartly sunny.6 mph66%29.95 "HgN/A
5:50 PM84 °FPartly sunny.8 mph66%29.95 "HgN/A
4:50 PM82 °FPartly sunny.9 mph66%29.95 "HgN/A
3:50 PM81 °FThundershowers. Broken clouds.7 mph70%N/A5 mi
Weather by CustomWeather, © 2016

See weather overviewHow to use our weather pages